{"data":{"norad_id":60559,"epoch":"2026-05-25T05:15:49.934016Z","epoch_age_seconds":53133,"freshness":"FRESH","line1":"1 60559U 24149CV  26145.21932794  .00015163  00000+0  38779-3 0  9992","line2":"2 60559  97.3841 229.0107 0003499  47.1423 313.0116 15.39523950 98741","mean_motion":15.3952395,"eccentricity":0.0003499,"inclination_deg":97.3841,"raan_deg":229.0107,"arg_perigee_deg":47.1423,"mean_anomaly_deg":313.0116,"bstar":0.00038779,"rev_number":9874,"period_min":93.53540748749,"perigee_km":445.12774040631,"apogee_km":449.90433240118,"semimajor_km":6825.6530364037,"source":"CELESTRAK","updated_at":"2026-05-25T13:38:13.334880Z"}}